Hourly Weather Klady

Today, 30 July, Friday

Time Temperature Precipitation Wind Pressure Humidity
00:00 +20°C° 0 mm 2 mps 742 mmHg 59%
01:00 +20°C° 0 mm 2 mps 742 mmHg 61%
02:00 +19°C° 0 mm 2 mps 742 mmHg 63%
03:00 +19°C° 0 mm 2 mps 742 mmHg 64%
04:00 +18°C° 0 mm 2 mps 742 mmHg 65%
05:00 +19°C° 0 mm 2 mps 742 mmHg 65%
06:00 +20°C° 0 mm 3 mps 742 mmHg 64%
07:00 +20°C° 0 mm 3 mps 742 mmHg 64%
08:00 +21°C° 0 mm 4 mps 742 mmHg 59%
09:00 +23°C° 0 mm 4 mps 742 mmHg 54%
10:00 +25°C° 0 mm 5 mps 742 mmHg 49%
11:00 +26°C° 0 mm 5 mps 742 mmHg 46%
12:00 +27°C° 0 mm 5 mps 742 mmHg 44%
13:00 +27°C° 0 mm 5 mps 741 mmHg 42%
14:00 +28°C° 0 mm 5 mps 741 mmHg 42%
15:00 +28°C° 0 mm 5 mps 741 mmHg 42%
16:00 +28°C° 0 mm 5 mps 740 mmHg 42%
17:00 +27°C° 0 mm 4 mps 740 mmHg 47%
18:00 +25°C° 0 mm 3 mps 740 mmHg 52%
19:00 +24°C° 0 mm 2 mps 740 mmHg 58%
20:00 +23°C° 0 mm 2 mps 740 mmHg 59%
21:00 +22°C° 0 mm 1 mps 740 mmHg 61%
22:00 +21°C° 0 mm 1 mps 741 mmHg 62%
23:00 +21°C° 0 mm 1 mps 740 mmHg 63%

Tomorrow, 31 July, Saturday

Time Temperature Precipitation Wind Pressure Humidity
00:00 +20°C° 0 mm 1 mps 740 mmHg 64%
01:00 +20°C° 0 mm 1 mps 740 mmHg 65%
02:00 +20°C° 0 mm 1 mps 740 mmHg 65%
03:00 +20°C° 0 mm 1 mps 740 mmHg 65%
04:00 +18°C° 0 mm 2 mps 740 mmHg 66%
05:00 +20°C° 0 mm 2 mps 740 mmHg 63%
06:00 +21°C° 0 mm 2 mps 740 mmHg 61%
07:00 +24°C° 0 mm 2 mps 740 mmHg 58%
08:00 +25°C° 0.1 mm 3 mps 740 mmHg 57%
09:00 +26°C° 0.1 mm 3 mps 740 mmHg 56%
10:00 +27°C° 0.1 mm 4 mps 740 mmHg 55%
11:00 +27°C° 0.1 mm 4 mps 739 mmHg 55%
12:00 +27°C° 0.1 mm 4 mps 739 mmHg 54%
13:00 +27°C° 0.1 mm 5 mps 739 mmHg 53%
14:00 +27°C° 0.1 mm 4 mps 739 mmHg 54%
15:00 +26°C° 0.1 mm 4 mps 739 mmHg 55%
16:00 +26°C° 0.1 mm 4 mps 739 mmHg 56%
17:00 +25°C° 0 mm 4 mps 739 mmHg 57%
18:00 +23°C° 0 mm 4 mps 739 mmHg 58%
19:00 +22°C° 0 mm 3 mps 739 mmHg 60%
20:00 +21°C° 0 mm 3 mps 740 mmHg 59%
21:00 +20°C° 0 mm 3 mps 740 mmHg 58%
22:00 +19°C° 0 mm 3 mps 740 mmHg 58%
23:00 +19°C° 0 mm 3 mps 740 mmHg 59%

Day after tomorrow, 1 August, Sunday

Time Temperature Precipitation Wind Pressure Humidity
00:00 +18°C° 0 mm 2 mps 740 mmHg 61%
01:00 +17°C° 0 mm 2 mps 740 mmHg 62%
02:00 +17°C° 0 mm 2 mps 741 mmHg 64%
03:00 +16°C° 0 mm 2 mps 741 mmHg 65%
04:00 +16°C° 0 mm 2 mps 741 mmHg 67%
05:00 +17°C° 0 mm 2 mps 741 mmHg 65%
06:00 +18°C° 0 mm 2 mps 741 mmHg 62%
07:00 +19°C° 0 mm 2 mps 741 mmHg 59%
08:00 +21°C° 0 mm 1 mps 741 mmHg 60%
09:00 +21°C° 0 mm 1 mps 741 mmHg 61%
10:00 +21°C° 0 mm 1 mps 741 mmHg 61%
11:00 +19°C° 0.8 mm 2 mps 741 mmHg 70%
12:00 +18°C° 0.8 mm 2 mps 741 mmHg 80%
13:00 +16°C° 0.8 mm 3 mps 741 mmHg 89%
14:00 +16°C° 0.4 mm 2 mps 741 mmHg 88%
15:00 +16°C° 0.4 mm 2 mps 741 mmHg 88%
16:00 +16°C° 0.4 mm 1 mps 741 mmHg 87%
17:00 +16°C° 0 mm 1 mps 741 mmHg 86%
18:00 +16°C° 0 mm 1 mps 741 mmHg 85%
19:00 +16°C° 0 mm 1 mps 740 mmHg 84%
20:00 +16°C° 0 mm 1 mps 740 mmHg 86%
21:00 +15°C° 0 mm 2 mps 740 mmHg 88%
22:00 +15°C° 0 mm 2 mps 740 mmHg 90%
23:00 +15°C° 0 mm 2 mps 740 mmHg 90%

2 August, Monday

Time Temperature Precipitation Wind Pressure Humidity
00:00 +15°C° 0 mm 2 mps 740 mmHg 91%
01:00 +15°C° 0 mm 2 mps 740 mmHg 91%
02:00 +15°C° 0 mm 2 mps 740 mmHg 92%
03:00 +15°C° 0 mm 2 mps 740 mmHg 93%
04:00 +15°C° 0 mm 2 mps 740 mmHg 93%
05:00 +16°C° 0 mm 3 mps 741 mmHg 88%
06:00 +17°C° 0 mm 3 mps 741 mmHg 83%
07:00 +18°C° 0 mm 4 mps 741 mmHg 78%
08:00 +19°C° 0.2 mm 4 mps 741 mmHg 72%
09:00 +21°C° 0.2 mm 5 mps 741 mmHg 65%
10:00 +22°C° 0.2 mm 5 mps 741 mmHg 58%
11:00 +23°C° 0.1 mm 5 mps 741 mmHg 53%
12:00 +25°C° 0.1 mm 5 mps 741 mmHg 49%
13:00 +25°C° 0.1 mm 5 mps 741 mmHg 45%
14:00 +23°C° 0 mm 5 mps 742 mmHg 50%
15:00 +22°C° 0 mm 5 mps 742 mmHg 55%
16:00 +22°C° 0 mm 4 mps 742 mmHg 60%
17:00 +21°C° 0.4 mm 4 mps 742 mmHg 65%
18:00 +20°C° 0.4 mm 3 mps 742 mmHg 69%
19:00 +19°C° 0.4 mm 3 mps 743 mmHg 73%
20:00 +18°C° 0 mm 3 mps 743 mmHg 74%
21:00 +17°C° 0 mm 3 mps 744 mmHg 75%
22:00 +17°C° 0 mm 2 mps 744 mmHg 76%
23:00 +16°C° 0 mm 2 mps 744 mmHg 76%

3 August, Tuesday

Time Temperature Precipitation Wind Pressure Humidity
00:00 +16°C° 0 mm 2 mps 744 mmHg 76%
01:00 +16°C° 0 mm 2 mps 745 mmHg 75%
02:00 +15°C° 0 mm 2 mps 745 mmHg 78%
03:00 +14°C° 0 mm 3 mps 745 mmHg 80%
04:00 +13°C° 0 mm 3 mps 745 mmHg 83%
05:00 +14°C° 0 mm 3 mps 745 mmHg 78%
06:00 +16°C° 0 mm 3 mps 746 mmHg 73%
07:00 +17°C° 0 mm 3 mps 746 mmHg 68%
08:00 +18°C° 0 mm 3 mps 746 mmHg 61%
09:00 +20°C° 0 mm 3 mps 746 mmHg 54%
10:00 +21°C° 0 mm 4 mps 746 mmHg 47%
11:00 +22°C° 0 mm 3 mps 746 mmHg 46%
12:00 +24°C° 0 mm 3 mps 746 mmHg 44%
13:00 +25°C° 0 mm 3 mps 746 mmHg 42%
14:00 +25°C° 0 mm 2 mps 746 mmHg 43%
15:00 +24°C° 0 mm 2 mps 745 mmHg 44%
16:00 +24°C° 0 mm 2 mps 745 mmHg 46%
17:00 +24°C° 0 mm 2 mps 745 mmHg 49%
18:00 +23°C° 0 mm 2 mps 745 mmHg 51%
19:00 +21°C° 0 mm 2 mps 745 mmHg 54%
20:00 +20°C° 0 mm 2 mps 744 mmHg 55%
21:00 +20°C° 0 mm 2 mps 744 mmHg 55%
22:00 +19°C° 0 mm 3 mps 744 mmHg 56%
23:00 +19°C° 0.1 mm 2 mps 744 mmHg 60%

4 August, Wednesday

Time Temperature Precipitation Wind Pressure Humidity
00:00 +18°C° 0.1 mm 2 mps 744 mmHg 65%
01:00 +17°C° 0.1 mm 2 mps 744 mmHg 70%
02:00 +17°C° 0.4 mm 2 mps 744 mmHg 73%
03:00 +16°C° 0.4 mm 1 mps 744 mmHg 77%
04:00 +16°C° 0.4 mm 1 mps 744 mmHg 81%
05:00 +18°C° 0.5 mm 1 mps 744 mmHg 81%
06:00 +18°C° 0.5 mm 1 mps 744 mmHg 80%
07:00 +19°C° 0.5 mm 1 mps 744 mmHg 79%
08:00 +17°C° 0.3 mm 2 mps 744 mmHg 82%
09:00 +17°C° 0.3 mm 2 mps 744 mmHg 84%
10:00 +17°C° 0.3 mm 3 mps 745 mmHg 86%
11:00 +17°C° 0.6 mm 3 mps 745 mmHg 87%
12:00 +17°C° 0.6 mm 2 mps 745 mmHg 88%
13:00 +16°C° 0.6 mm 2 mps 745 mmHg 90%
14:00 +17°C° 0 mm 2 mps 745 mmHg 85%
15:00 +19°C° 0 mm 1 mps 745 mmHg 79%
16:00 +20°C° 0 mm 1 mps 745 mmHg 74%
17:00 +20°C° 0.1 mm 1 mps 745 mmHg 76%
18:00 +20°C° 0.1 mm 1 mps 745 mmHg 78%
19:00 +19°C° 0.1 mm 1 mps 744 mmHg 80%
20:00 +19°C° 0 mm 1 mps 745 mmHg 81%
21:00 +18°C° 0 mm 1 mps 745 mmHg 82%
22:00 +18°C° 0 mm 1 mps 745 mmHg 84%
23:00 +18°C° 0 mm 1 mps 745 mmHg 85%
Show more